Wetterdaten: Freitag, 06.05.2016
Datum Zeit Auen-Temp. Temp gefhlt Luftfeuchte Luftdruck Regen Wind Richtung Richtung Sonnenschein Taupunkt Windben
06.05.2016 00:00 4,2 C 4,0 C 84 % 1018,4 hPa 0,0 mm 0,0 km/h (0 Bft) N 360 0 min 1,7 C 0,0 km/h (0 Bft)
06.05.2016 00:05 4,0 C 3,8 C 83 % 1018,4 hPa 0,0 mm 0,0 km/h (0 Bft) W 270 0 min 1,4 C 0,0 km/h (0 Bft)
06.05.2016 00:10 4,4 C 3,9 C 84 % 1018,4 hPa 0,0 mm 0,0 km/h (0 Bft) W 270 0 min 1,9 C 0,0 km/h (0 Bft)
06.05.2016 00:12 4,2 C 3,8 C 84 % 1018,2 hPa 0,0 mm 0,0 km/h (0 Bft) NW 315 0 min 1,7 C 0,0 km/h (0 Bft)
06.05.2016 00:16 4,2 C 3,8 C 84 % 1018,2 hPa 0,0 mm 0,0 km/h (0 Bft) NW 315 0 min 1,7 C 0,0 km/h (0 Bft)
06.05.2016 00:20 4,3 C 3,8 C 85 % 1018,2 hPa 0,0 mm 0,0 km/h (0 Bft) S 180 0 min 2,0 C 0,0 km/h (0 Bft)
06.05.2016 00:25 4,0 C 3,7 C 85 % 1018,2 hPa 0,0 mm 0,0 km/h (0 Bft) NO 45 0 min 1,7 C 0,0 km/h (0 Bft)
06.05.2016 00:30 3,6 C 3,3 C 85 % 1018,2 hPa 0,0 mm 0,0 km/h (0 Bft) NO 45 0 min 1,3 C 0,0 km/h (0 Bft)
06.05.2016 00:35 3,6 C 3,3 C 85 % 1018,3 hPa 0,0 mm 0,0 km/h (0 Bft) N-NO 22 0 min 1,3 C 0,0 km/h (0 Bft)
06.05.2016 00:40 4,0 C 3,5 C 85 % 1018,3 hPa 0,0 mm 0,0 km/h (0 Bft) S-SO 157 0 min 1,7 C 0,0 km/h (0 Bft)
06.05.2016 00:45 3,7 C 3,4 C 86 % 1018,3 hPa 0,0 mm 0,0 km/h (0 Bft) NW 315 0 min 1,6 C 0,0 km/h (0 Bft)
06.05.2016 00:50 3,4 C 3,1 C 86 % 1018,3 hPa 0,0 mm 0,0 km/h (0 Bft) NO 45 0 min 1,3 C 0,0 km/h (0 Bft)
06.05.2016 00:55 3,1 C 2,8 C 86 % 1018,2 hPa 0,0 mm 0,0 km/h (0 Bft) W 270 0 min 1,0 C 0,0 km/h (0 Bft)
06.05.2016 01:00 3,3 C 2,9 C 86 % 1018,2 hPa 0,0 mm 0,0 km/h (0 Bft) W-NW 292 0 min 1,2 C 0,0 km/h (0 Bft)
06.05.2016 01:05 3,2 C 2,8 C 86 % 1018,2 hPa 0,0 mm 0,0 km/h (0 Bft) O 90 0 min 1,1 C 0,0 km/h (0 Bft)
06.05.2016 01:10 3,0 C 2,7 C 86 % 1018,2 hPa 0,0 mm 0,0 km/h (0 Bft) NO 45 0 min 0,9 C 0,0 km/h (0 Bft)
06.05.2016 01:15 3,0 C 2,7 C 86 % 1018,0 hPa 0,0 mm 0,0 km/h (0 Bft) W 270 0 min 0,9 C 0,0 km/h (0 Bft)
06.05.2016 01:20 2,9 C 2,6 C 87 % 1018,0 hPa 0,0 mm 0,0 km/h (0 Bft) O-SO 112 0 min 1,0 C 0,0 km/h (0 Bft)
06.05.2016 01:25 3,4 C 3,0 C 87 % 1018,0 hPa 0,0 mm 0,0 km/h (0 Bft) SO 135 0 min 1,4 C 0,0 km/h (0 Bft)
06.05.2016 01:30 3,1 C 2,8 C 87 % 1018,0 hPa 0,0 mm 0,0 km/h (0 Bft) S-SO 157 0 min 1,2 C 0,0 km/h (0 Bft)
06.05.2016 01:35 3,2 C 2,9 C 88 % 1017,9 hPa 0,0 mm 0,0 km/h (0 Bft) N-NO 22 0 min 1,4 C 0,0 km/h (0 Bft)
06.05.2016 01:40 2,7 C 2,5 C 88 % 1017,9 hPa 0,0 mm 0,0 km/h (0 Bft) NW 315 0 min 0,9 C 0,0 km/h (0 Bft)
06.05.2016 01:45 2,8 C 2,5 C 88 % 1017,9 hPa 0,0 mm 0,0 km/h (0 Bft) O-NO 67 0 min 1,0 C 0,0 km/h (0 Bft)
06.05.2016 01:50 2,5 C 2,2 C 88 % 1017,9 hPa 0,0 mm 0,0 km/h (0 Bft) W-SW 247 0 min 0,7 C 0,0 km/h (0 Bft)
06.05.2016 01:55 2,4 C 2,1 C 88 % 1017,8 hPa 0,0 mm 0,0 km/h (0 Bft) W 270 0 min 0,6 C 0,0 km/h (0 Bft)
06.05.2016 02:00 2,6 C 2,2 C 88 % 1017,8 hPa 0,0 mm 0,0 km/h (0 Bft) O-SO 112 0 min 0,8 C 0,0 km/h (0 Bft)
06.05.2016 02:05 2,1 C 1,9 C 88 % 1017,8 hPa 0,0 mm 0,0 km/h (0 Bft) W-NW 292 0 min 0,3 C 0,0 km/h (0 Bft)
06.05.2016 02:10 2,1 C 1,9 C 88 % 1017,8 hPa 0,0 mm 0,0 km/h (0 Bft) W-NW 292 0 min 0,3 C 0,0 km/h (0 Bft)
06.05.2016 02:15 2,3 C 2,0 C 88 % 1017,7 hPa 0,0 mm 0,0 km/h (0 Bft) W-SW 247 0 min 0,5 C 0,0 km/h (0 Bft)
06.05.2016 02:20 2,2 C 1,9 C 88 % 1017,7 hPa 0,0 mm 0,0 km/h (0 Bft) S-SW 202 0 min 0,4 C 0,0 km/h (0 Bft)
06.05.2016 02:25 2,3 C 2,0 C 88 % 1017,7 hPa 0,0 mm 0,3 km/h (0 Bft) S-SO 157 0 min 0,5 C 5,1 km/h (1 Bft)
06.05.2016 02:30 2,1 C 1,8 C 88 % 1017,7 hPa 0,0 mm 0,3 km/h (0 Bft) S 180 0 min 0,3 C 0,0 km/h (0 Bft)
06.05.2016 02:35 2,3 C 2,0 C 88 % 1017,6 hPa 0,0 mm 0,0 km/h (0 Bft) S-SO 157 0 min 0,5 C 0,0 km/h (0 Bft)
06.05.2016 02:40 2,4 C 2,1 C 89 % 1017,6 hPa 0,0 mm 0,0 km/h (0 Bft) N-NO 22 0 min 0,8 C 0,0 km/h (0 Bft)
06.05.2016 02:45 1,9 C 1,7 C 89 % 1017,6 hPa 0,0 mm 0,3 km/h (0 Bft) W 270 0 min 0,3 C 0,0 km/h (0 Bft)
06.05.2016 02:50 2,1 C 1,8 C 88 % 1017,6 hPa 0,0 mm 0,3 km/h (0 Bft) O-SO 112 0 min 0,3 C 0,0 km/h (0 Bft)
06.05.2016 02:55 1,7 C 1,6 C 89 % 1017,4 hPa 0,0 mm 0,0 km/h (0 Bft) NW 315 0 min 0,1 C 0,0 km/h (0 Bft)
06.05.2016 03:00 1,7 C 1,5 C 89 % 1017,4 hPa 0,0 mm 0,0 km/h (0 Bft) S-SO 157 0 min 0,1 C 0,0 km/h (0 Bft)
06.05.2016 03:05 2,0 C 1,7 C 89 % 1017,4 hPa 0,0 mm 0,0 km/h (0 Bft) SO 135 0 min 0,4 C 0,0 km/h (0 Bft)
06.05.2016 03:10 1,6 C 1,5 C 89 % 1017,4 hPa 0,0 mm 0,0 km/h (0 Bft) W 270 0 min -0,0 C 0,0 km/h (0 Bft)
06.05.2016 03:15 2,0 C 1,7 C 89 % 1017,2 hPa 0,0 mm 0,0 km/h (0 Bft) W-SW 247 0 min 0,4 C 0,0 km/h (0 Bft)
06.05.2016 03:17 2,0 C 1,7 C 89 % 1017,2 hPa 0,0 mm 0,0 km/h (0 Bft) W-SW 247 0 min 0,4 C 0,0 km/h (0 Bft)
06.05.2016 03:20 1,8 C 1,6 C 89 % 1017,2 hPa 0,0 mm 0,0 km/h (0 Bft) NW 315 0 min 0,2 C 0,0 km/h (0 Bft)
06.05.2016 03:25 1,2 C 1,0 C 89 % 1017,2 hPa 0,0 mm 0,0 km/h (0 Bft) SW 225 0 min -0,4 C 0,0 km/h (0 Bft)
06.05.2016 03:30 1,6 C 1,2 C 89 % 1017,2 hPa 0,0 mm 0,0 km/h (0 Bft) SW 225 0 min -0,0 C 0,0 km/h (0 Bft)
06.05.2016 03:35 1,6 C 1,2 C 89 % 1017,1 hPa 0,0 mm 0,0 km/h (0 Bft) SW 225 0 min -0,0 C 0,0 km/h (0 Bft)
06.05.2016 03:40 1,5 C 1,1 C 89 % 1017,1 hPa 0,0 mm 0,0 km/h (0 Bft) W 270 0 min -0,1 C 0,0 km/h (0 Bft)
06.05.2016 03:45 1,6 C 1,3 C 89 % 1017,1 hPa 0,0 mm 0,0 km/h (0 Bft) W 270 0 min -0,0 C 0,0 km/h (0 Bft)
06.05.2016 03:50 1,5 C 1,2 C 89 % 1017,1 hPa 0,0 mm 0,0 km/h (0 Bft) NW 315 0 min -0,1 C 0,0 km/h (0 Bft)
06.05.2016 03:55 1,5 C 1,2 C 89 % 1016,9 hPa 0,0 mm 0,0 km/h (0 Bft) W-SW 247 0 min -0,1 C 0,0 km/h (0 Bft)
06.05.2016 04:00 2,0 C 1,5 C 90 % 1016,9 hPa 0,0 mm 0,0 km/h (0 Bft) S-SO 157 0 min 0,5 C 0,0 km/h (0 Bft)
06.05.2016 04:05 1,9 C 1,5 C 91 % 1016,9 hPa 0,0 mm 0,0 km/h (0 Bft) O-SO 112 0 min 0,6 C 0,0 km/h (0 Bft)
06.05.2016 04:10 1,9 C 1,5 C 91 % 1016,9 hPa 0,0 mm 0,0 km/h (0 Bft) S 180 0 min 0,6 C 0,0 km/h (0 Bft)
06.05.2016 04:15 1,5 C 1,3 C 91 % 1016,8 hPa 0,0 mm 0,0 km/h (0 Bft) W-NW 292 0 min 0,2 C 0,0 km/h (0 Bft)
06.05.2016 04:20 1,7 C 1,3 C 91 % 1016,8 hPa 0,0 mm 0,0 km/h (0 Bft) O 90 0 min 0,4 C 0,0 km/h (0 Bft)
06.05.2016 04:25 1,7 C 1,3 C 91 % 1016,8 hPa 0,0 mm 0,0 km/h (0 Bft) SO 135 0 min 0,4 C 0,0 km/h (0 Bft)
06.05.2016 04:30 1,9 C 1,4 C 91 % 1016,8 hPa 0,0 mm 0,0 km/h (0 Bft) O-SO 112 0 min 0,6 C 0,0 km/h (0 Bft)
06.05.2016 04:35 1,5 C 1,2 C 91 % 1016,9 hPa 0,0 mm 0,0 km/h (0 Bft) S 180 0 min 0,2 C 0,0 km/h (0 Bft)
06.05.2016 04:40 1,6 C 1,3 C 91 % 1016,9 hPa 0,0 mm 0,0 km/h (0 Bft) SW 225 0 min 0,3 C 0,0 km/h (0 Bft)
06.05.2016 04:45 1,3 C 1,0 C 91 % 1016,9 hPa 0,0 mm 0,0 km/h (0 Bft) W-SW 247 0 min -0,0 C 0,0 km/h (0 Bft)
06.05.2016 04:50 1,2 C 0,9 C 91 % 1016,9 hPa 0,0 mm 0,0 km/h (0 Bft) W-SW 247 0 min -0,1 C 0,0 km/h (0 Bft)
06.05.2016 04:55 1,7 C 1,2 C 91 % 1016,9 hPa 0,0 mm 0,0 km/h (0 Bft) S 180 0 min 0,4 C 0,0 km/h (0 Bft)
06.05.2016 05:00 1,4 C 1,1 C 91 % 1016,9 hPa 0,0 mm 0,0 km/h (0 Bft) W 270 0 min 0,1 C 0,0 km/h (0 Bft)
06.05.2016 05:05 1,3 C 1,0 C 91 % 1016,9 hPa 0,0 mm 0,0 km/h (0 Bft) W 270 0 min -0,0 C 0,0 km/h (0 Bft)
06.05.2016 05:10 1,5 C 1,1 C 91 % 1016,9 hPa 0,0 mm 0,0 km/h (0 Bft) W-SW 247 0 min 0,2 C 0,0 km/h (0 Bft)
06.05.2016 05:15 1,1 C 0,8 C 91 % 1016,8 hPa 0,0 mm 0,0 km/h (0 Bft) W-SW 247 0 min -0,2 C 0,0 km/h (0 Bft)
06.05.2016 05:20 0,8 C 0,6 C 91 % 1016,8 hPa 0,0 mm 0,0 km/h (0 Bft) SW 225 0 min -0,5 C 0,0 km/h (0 Bft)
06.05.2016 05:25 1,2 C 0,8 C 90 % 1016,8 hPa 0,0 mm 0,3 km/h (0 Bft) W 270 0 min -0,3 C 0,0 km/h (0 Bft)
06.05.2016 05:30 2,0 C 1,5 C 91 % 1016,8 hPa 0,0 mm 0,6 km/h (0 Bft) W-SW 247 0 min 0,7 C 0,0 km/h (0 Bft)
06.05.2016 05:35 2,9 C 2,4 C 91 % 1016,8 hPa 0,0 mm 2,4 km/h (1 Bft) W-SW 247 0 min 1,6 C 8,9 km/h (2 Bft)
06.05.2016 05:40 3,0 C 2,5 C 90 % 1016,8 hPa 0,0 mm 2,4 km/h (1 Bft) S 180 0 min 1,5 C 8,3 km/h (2 Bft)
06.05.2016 05:45 3,3 C 2,8 C 90 % 1016,8 hPa 0,0 mm 4,8 km/h (1 Bft) O-SO 112 0 min 1,8 C 10,1 km/h (2 Bft)
06.05.2016 05:50 3,4 C 2,7 C 89 % 1016,8 hPa 0,0 mm 6,6 km/h (2 Bft) SW 225 0 min 1,8 C 6,3 km/h (2 Bft)
06.05.2016 05:55 2,2 C 2,1 C 88 % 1017,0 hPa 0,0 mm 4,5 km/h (1 Bft) S-SO 157 0 min 0,4 C 11,0 km/h (2 Bft)
06.05.2016 06:00 1,9 C 1,8 C 88 % 1017,0 hPa 0,0 mm 2,7 km/h (1 Bft) SO 135 0 min 0,1 C 5,1 km/h (1 Bft)
06.05.2016 06:05 2,7 C 2,3 C 88 % 1017,0 hPa 0,0 mm 1,5 km/h (1 Bft) NW 315 0 min 0,9 C 3,6 km/h (1 Bft)
06.05.2016 06:10 2,1 C 1,8 C 87 % 1017,0 hPa 0,0 mm 1,2 km/h (1 Bft) W-SW 247 0 min 0,2 C 0,0 km/h (0 Bft)
06.05.2016 06:15 2,1 C 1,8 C 87 % 1017,1 hPa 0,0 mm 0,0 km/h (0 Bft) W 270 0 min 0,2 C 0,0 km/h (0 Bft)
06.05.2016 06:17 1,8 C 1,6 C 87 % 1017,1 hPa 0,0 mm 0,0 km/h (0 Bft) W-SW 247 0 min -0,1 C 0,0 km/h (0 Bft)
06.05.2016 06:18 1,8 C 1,6 C 87 % 1017,1 hPa 0,0 mm 0,0 km/h (0 Bft) W-SW 247 0 min -0,1 C 0,0 km/h (0 Bft)
06.05.2016 06:20 1,8 C 1,6 C 87 % 1017,1 hPa 0,0 mm 0,0 km/h (0 Bft) W-SW 247 0 min -0,1 C 0,0 km/h (0 Bft)
06.05.2016 06:25 2,0 C 1,9 C 87 % 1017,1 hPa 0,0 mm 2,1 km/h (1 Bft) S-SO 157 0 min 0,1 C 4,5 km/h (1 Bft)
06.05.2016 06:30 1,9 C 3,2 C 82 % 1017,1 hPa 0,0 mm 2,1 km/h (1 Bft) S-SW 202 0 min -0,8 C 0,0 km/h (0 Bft)
06.05.2016 06:35 2,3 C 5,1 C 82 % 1017,2 hPa 0,0 mm 1,2 km/h (1 Bft) O-SO 112 5 min -0,4 C 0,0 km/h (0 Bft)
06.05.2016 06:40 2,4 C 6,3 C 82 % 1017,2 hPa 0,0 mm 0,9 km/h (0 Bft) SO 135 5 min -0,4 C 0,0 km/h (0 Bft)
06.05.2016 06:45 3,2 C 7,7 C 81 % 1017,2 hPa 0,0 mm 0,6 km/h (0 Bft) O-NO 67 5 min 0,3 C 0,0 km/h (0 Bft)
06.05.2016 06:50 3,1 C 8,4 C 85 % 1017,2 hPa 0,0 mm 0,6 km/h (0 Bft) S-SO 157 5 min 0,8 C 4,2 km/h (1 Bft)
06.05.2016 06:55 3,9 C 9,6 C 81 % 1017,1 hPa 0,0 mm 0,9 km/h (0 Bft) S-SO 157 5 min 0,9 C 0,0 km/h (0 Bft)
06.05.2016 07:00 4,3 C 10,4 C 80 % 1017,1 hPa 0,0 mm 0,9 km/h (0 Bft) NO 45 5 min 1,2 C 0,0 km/h (0 Bft)
06.05.2016 07:05 4,2 C 11,0 C 79 % 1017,1 hPa 0,0 mm 0,3 km/h (0 Bft) NW 315 5 min 0,9 C 0,0 km/h (0 Bft)
06.05.2016 07:10 4,4 C 11,7 C 79 % 1017,1 hPa 0,0 mm 0,3 km/h (0 Bft) O 90 5 min 1,1 C 0,0 km/h (0 Bft)
06.05.2016 07:15 4,4 C 12,2 C 81 % 1017,4 hPa 0,0 mm 0,0 km/h (0 Bft) O-NO 67 5 min 1,4 C 0,0 km/h (0 Bft)
06.05.2016 07:20 4,4 C 13,0 C 81 % 1017,4 hPa 0,0 mm 0,0 km/h (0 Bft) N-NO 22 5 min 1,4 C 0,0 km/h (0 Bft)
06.05.2016 07:25 4,6 C 14,4 C 79 % 1017,4 hPa 0,0 mm 0,0 km/h (0 Bft) N-NO 22 5 min 1,3 C 0,0 km/h (0 Bft)
06.05.2016 07:30 5,2 C 15,3 C 79 % 1017,4 hPa 0,0 mm 0,0 km/h (0 Bft) SO 135 5 min 1,9 C 0,0 km/h (0 Bft)
06.05.2016 07:35 6,7 C 15,4 C 78 % 1017,4 hPa 0,0 mm 3,0 km/h (1 Bft) S 180 5 min 3,1 C 13,1 km/h (3 Bft)
06.05.2016 07:40 7,1 C 15,6 C 77 % 1017,4 hPa 0,0 mm 3,6 km/h (1 Bft) SO 135 5 min 3,3 C 0,0 km/h (0 Bft)
06.05.2016 07:45 8,0 C 16,6 C 76 % 1017,4 hPa 0,0 mm 2,7 km/h (1 Bft) S-SW 202 5 min 4,0 C 8,9 km/h (2 Bft)
06.05.2016 07:50 8,8 C 16,9 C 75 % 1017,4 hPa 0,0 mm 2,1 km/h (1 Bft) N-NO 22 5 min 4,6 C 0,0 km/h (0 Bft)
06.05.2016 07:55 10,0 C 18,7 C 73 % 1017,6 hPa 0,0 mm 1,8 km/h (1 Bft) O 90 5 min 5,4 C 0,0 km/h (0 Bft)
06.05.2016 08:00 10,4 C 19,4 C 72 % 1017,6 hPa 0,0 mm 0,0 km/h (0 Bft) O 90 5 min 5,6 C 0,0 km/h (0 Bft)
06.05.2016 08:05 10,7 C 20,0 C 70 % 1017,6 hPa 0,0 mm 0,0 km/h (0 Bft) O 90 5 min 5,5 C 0,0 km/h (0 Bft)
06.05.2016 08:10 10,8 C 20,4 C 70 % 1017,6 hPa 0,0 mm 0,0 km/h (0 Bft) O-NO 67 5 min 5,6 C 0,0 km/h (0 Bft)
06.05.2016 08:15 12,1 C 21,3 C 69 % 1017,5 hPa 0,0 mm 0,0 km/h (0 Bft) O-NO 67 5 min 6,6 C 0,0 km/h (0 Bft)
06.05.2016 08:20 12,6 C 21,6 C 68 % 1017,5 hPa 0,0 mm 0,0 km/h (0 Bft) O 90 5 min 6,9 C 0,0 km/h (0 Bft)
06.05.2016 08:25 13,1 C 22,5 C 65 % 1017,5 hPa 0,0 mm 0,0 km/h (0 Bft) O-SO 112 5 min 6,7 C 0,0 km/h (0 Bft)
06.05.2016 08:30 13,2 C 23,4 C 64 % 1017,5 hPa 0,0 mm 0,0 km/h (0 Bft) O-NO 67 5 min 6,5 C 0,0 km/h (0 Bft)
06.05.2016 08:35 13,5 C 23,9 C 62 % 1017,4 hPa 0,0 mm 0,0 km/h (0 Bft) NO 45 5 min 6,4 C 0,0 km/h (0 Bft)
06.05.2016 08:40 14,3 C 24,3 C 62 % 1017,4 hPa 0,0 mm 0,0 km/h (0 Bft) O-NO 67 5 min 7,1 C 0,0 km/h (0 Bft)
06.05.2016 08:45 13,9 C 24,0 C 60 % 1017,4 hPa 0,0 mm 0,6 km/h (0 Bft) O-NO 67 5 min 6,3 C 3,9 km/h (1 Bft)
06.05.2016 08:50 13,9 C 23,4 C 60 % 1017,4 hPa 0,0 mm 0,9 km/h (0 Bft) O-NO 67 5 min 6,3 C 0,0 km/h (0 Bft)
06.05.2016 08:55 14,8 C 23,2 C 59 % 1017,2 hPa 0,0 mm 0,9 km/h (0 Bft) O-NO 67 5 min 6,9 C 0,0 km/h (0 Bft)
06.05.2016 09:00 14,9 C 23,2 C 59 % 1017,2 hPa 0,0 mm 0,6 km/h (0 Bft) O-SO 112 5 min 7,0 C 0,0 km/h (0 Bft)
06.05.2016 09:05 15,7 C 22,9 C 58 % 1017,2 hPa 0,0 mm 0,9 km/h (0 Bft) O-NO 67 5 min 7,5 C 0,0 km/h (0 Bft)
06.05.2016 09:10 15,9 C 23,8 C 58 % 1017,2 hPa 0,0 mm 0,3 km/h (0 Bft) O-NO 67 5 min 7,6 C 0,0 km/h (0 Bft)
06.05.2016 09:15 16,6 C 24,6 C 57 % 1017,1 hPa 0,0 mm 0,0 km/h (0 Bft) SO 135 5 min 8,0 C 0,0 km/h (0 Bft)
06.05.2016 09:17 17,2 C 25,5 C 56 % 1017,1 hPa 0,0 mm 0,0 km/h (0 Bft) O 90 2 min 8,3 C 0,0 km/h (0 Bft)
06.05.2016 09:19 17,2 C 25,5 C 56 % 1017,1 hPa 0,0 mm 0,0 km/h (0 Bft) O 90 2 min 8,3 C 0,0 km/h (0 Bft)
06.05.2016 09:20 17,2 C 25,5 C 56 % 1017,1 hPa 0,0 mm 0,0 km/h (0 Bft) O 90 1 min 8,3 C 0,0 km/h (0 Bft)
06.05.2016 09:25 16,9 C 26,2 C 55 % 1017,1 hPa 0,0 mm 0,0 km/h (0 Bft) NO 45 5 min 7,8 C 0,0 km/h (0 Bft)
06.05.2016 09:30 17,1 C 26,2 C 53 % 1017,1 hPa 0,0 mm 0,0 km/h (0 Bft) O 90 5 min 7,4 C 3,3 km/h (1 Bft)
06.05.2016 09:35 17,7 C 25,8 C 50 % 1016,9 hPa 0,0 mm 1,2 km/h (1 Bft) SO 135 5 min 7,1 C 0,0 km/h (0 Bft)
06.05.2016 09:40 17,8 C 26,5 C 50 % 1016,9 hPa 0,0 mm 1,2 km/h (1 Bft) NO 45 5 min 7,2 C 4,8 km/h (1 Bft)
06.05.2016 09:45 18,2 C 26,3 C 49 % 1016,9 hPa 0,0 mm 1,8 km/h (1 Bft) N-NO 22 5 min 7,3 C 5,4 km/h (1 Bft)
06.05.2016 09:50 18,0 C 25,8 C 48 % 1016,9 hPa 0,0 mm 3,6 km/h (1 Bft) NW 315 5 min 6,8 C 6,9 km/h (2 Bft)
06.05.2016 09:55 18,0 C 25,2 C 46 % 1016,9 hPa 0,0 mm 4,8 km/h (1 Bft) N-NW 337 5 min 6,2 C 5,4 km/h (1 Bft)
06.05.2016 10:00 18,0 C 25,0 C 45 % 1016,9 hPa 0,0 mm 4,5 km/h (1 Bft) N-NO 22 5 min 5,9 C 6,6 km/h (2 Bft)
06.05.2016 10:05 17,9 C 24,7 C 43 % 1016,9 hPa 0,0 mm 5,1 km/h (1 Bft) NO 45 5 min 5,1 C 6,6 km/h (2 Bft)
06.05.2016 10:10 18,0 C 24,8 C 44 % 1016,9 hPa 0,0 mm 4,2 km/h (1 Bft) O 90 5 min 5,6 C 4,2 km/h (1 Bft)
06.05.2016 10:15 17,9 C 24,2 C 42 % 1017,1 hPa 0,0 mm 5,4 km/h (1 Bft) NW 315 5 min 4,8 C 7,7 km/h (2 Bft)
06.05.2016 10:20 18,0 C 24,2 C 42 % 1017,1 hPa 0,0 mm 6,0 km/h (2 Bft) N-NW 337 5 min 4,9 C 0,0 km/h (0 Bft)
06.05.2016 10:25 18,4 C 24,6 C 42 % 1017,1 hPa 0,0 mm 4,2 km/h (1 Bft) O-NO 67 5 min 5,3 C 4,5 km/h (1 Bft)
06.05.2016 10:30 18,3 C 24,5 C 42 % 1017,1 hPa 0,0 mm 3,9 km/h (1 Bft) O 90 5 min 5,2 C 0,0 km/h (0 Bft)
06.05.2016 10:35 18,0 C 24,3 C 40 % 1017,6 hPa 0,0 mm 4,5 km/h (1 Bft) N-NO 22 5 min 4,2 C 14,0 km/h (3 Bft)
06.05.2016 10:40 18,1 C 24,4 C 40 % 1017,6 hPa 0,0 mm 4,5 km/h (1 Bft) N-NO 22 5 min 4,3 C 7,7 km/h (2 Bft)
06.05.2016 10:45 18,3 C 24,3 C 40 % 1017,6 hPa 0,0 mm 3,6 km/h (1 Bft) SO 135 5 min 4,5 C 4,5 km/h (1 Bft)
06.05.2016 10:50 18,4 C 24,5 C 38 % 1017,6 hPa 0,0 mm 3,6 km/h (1 Bft) SW 225 5 min 3,8 C 4,2 km/h (1 Bft)
06.05.2016 10:55 18,7 C 25,1 C 38 % 1017,8 hPa 0,0 mm 3,0 km/h (1 Bft) NO 45 5 min 4,1 C 11,6 km/h (2 Bft)
06.05.2016 11:00 18,6 C 24,7 C 39 % 1017,8 hPa 0,0 mm 4,2 km/h (1 Bft) O-SO 112 5 min 4,4 C 5,4 km/h (1 Bft)
06.05.2016 11:05 18,7 C 24,3 C 39 % 1017,8 hPa 0,0 mm 6,9 km/h (2 Bft) O-NO 67 5 min 4,5 C 14,6 km/h (3 Bft)
06.05.2016 11:10 18,3 C 23,5 C 39 % 1017,8 hPa 0,0 mm 7,2 km/h (2 Bft) S 180 5 min 4,1 C 6,3 km/h (2 Bft)
06.05.2016 11:15 18,4 C 23,4 C 38 % 1018,1 hPa 0,0 mm 7,7 km/h (2 Bft) O-SO 112 5 min 3,8 C 5,1 km/h (1 Bft)
06.05.2016 11:20 18,6 C 23,7 C 38 % 1018,1 hPa 0,0 mm 5,4 km/h (1 Bft) O-NO 67 5 min 4,0 C 0,0 km/h (0 Bft)
06.05.2016 11:25 18,9 C 24,1 C 39 % 1018,1 hPa 0,0 mm 4,8 km/h (1 Bft) W-SW 247 5 min 4,6 C 17,3 km/h (3 Bft)
06.05.2016 11:30 19,0 C 23,7 C 40 % 1018,1 hPa 0,0 mm 6,9 km/h (2 Bft) N-NO 22 5 min 5,1 C 5,4 km/h (1 Bft)
06.05.2016 11:35 19,1 C 23,9 C 40 % 1018,4 hPa 0,0 mm 8,0 km/h (2 Bft) SW 225 5 min 5,2 C 5,7 km/h (1 Bft)
06.05.2016 11:40 19,2 C 24,1 C 41 % 1018,4 hPa 0,0 mm 6,0 km/h (2 Bft) NW 315 5 min 5,6 C 7,2 km/h (2 Bft)
06.05.2016 11:45 19,5 C 23,9 C 40 % 1018,4 hPa 0,0 mm 7,2 km/h (2 Bft) S 180 5 min 5,5 C 18,2 km/h (3 Bft)
06.05.2016 11:50 19,6 C 23,8 C 40 % 1018,4 hPa 0,0 mm 8,3 km/h (2 Bft) N-NW 337 5 min 5,6 C 7,7 km/h (2 Bft)
06.05.2016 11:55 19,4 C 23,4 C 40 % 1018,6 hPa 0,0 mm 9,2 km/h (2 Bft) W 270 5 min 5,5 C 12,5 km/h (3 Bft)
06.05.2016 12:00 19,2 C 23,2 C 40 % 1018,6 hPa 0,0 mm 10,4 km/h (2 Bft) NW 315 5 min 5,3 C 11,6 km/h (2 Bft)
06.05.2016 12:05 19,1 C 23,0 C 39 % 1018,6 hPa 0,0 mm 10,7 km/h (2 Bft) W 270 0 min 4,8 C 12,8 km/h (3 Bft)
06.05.2016 12:10 19,0 C 22,8 C 40 % 1018,6 hPa 0,0 mm 10,4 km/h (2 Bft) W 270 0 min 5,1 C 12,8 km/h (3 Bft)
06.05.2016 12:15 19,4 C 23,1 C 40 % 1018,6 hPa 0,0 mm 9,8 km/h (2 Bft) NW 315 0 min 5,5 C 22,7 km/h (4 Bft)
06.05.2016 12:17 19,6 C 23,2 C 40 % 1018,6 hPa 0,0 mm 9,8 km/h (2 Bft) NW 315 0 min 5,6 C 18,5 km/h (3 Bft)
06.05.2016 12:20 19,6 C 23,2 C 40 % 1018,6 hPa 0,0 mm 9,8 km/h (2 Bft) NW 315 0 min 5,6 C 18,5 km/h (3 Bft)
06.05.2016 12:25 19,8 C 23,2 C 40 % 1018,6 hPa 0,0 mm 9,2 km/h (2 Bft) O-NO 67 0 min 5,8 C 0,0 km/h (0 Bft)
06.05.2016 12:30 20,0 C 23,6 C 40 % 1018,6 hPa 0,0 mm 8,3 km/h (2 Bft) N-NW 337 0 min 6,0 C 13,4 km/h (3 Bft)
06.05.2016 12:35 20,0 C 23,5 C 40 % 1018,7 hPa 0,0 mm 8,3 km/h (2 Bft) N-NO 22 0 min 6,0 C 23,2 km/h (4 Bft)
06.05.2016 12:40 19,7 C 23,2 C 39 % 1018,7 hPa 0,0 mm 10,7 km/h (2 Bft) O-NO 67 0 min 5,4 C 11,0 km/h (2 Bft)
06.05.2016 12:45 19,5 C 22,8 C 41 % 1018,7 hPa 0,0 mm 10,7 km/h (2 Bft) N-NW 337 0 min 5,9 C 25,6 km/h (4 Bft)
06.05.2016 12:50 19,4 C 22,2 C 41 % 1018,7 hPa 0,0 mm 10,1 km/h (2 Bft) N-NO 22 0 min 5,8 C 14,6 km/h (3 Bft)
06.05.2016 12:55 19,8 C 21,6 C 42 % 1018,9 hPa 0,0 mm 8,6 km/h (2 Bft) N-NW 337 0 min 6,5 C 17,0 km/h (3 Bft)
06.05.2016 13:00 19,8 C 22,0 C 42 % 1018,9 hPa 0,0 mm 6,3 km/h (2 Bft) NO 45 0 min 6,5 C 19,4 km/h (3 Bft)
06.05.2016 13:05 19,7 C 22,0 C 43 % 1018,9 hPa 0,0 mm 8,9 km/h (2 Bft) N 360 0 min 6,8 C 15,2 km/h (3 Bft)
06.05.2016 13:10 19,7 C 22,4 C 43 % 1018,9 hPa 0,0 mm 11,0 km/h (2 Bft) O-NO 67 0 min 6,8 C 20,6 km/h (4 Bft)
06.05.2016 13:15 19,5 C 22,9 C 44 % 1018,9 hPa 0,0 mm 8,9 km/h (2 Bft) NO 45 0 min 6,9 C 9,2 km/h (2 Bft)
06.05.2016 13:20 19,5 C 23,4 C 42 % 1018,9 hPa 0,0 mm 9,5 km/h (2 Bft) NO 45 5 min 6,2 C 12,2 km/h (2 Bft)
06.05.2016 13:25 19,2 C 22,4 C 43 % 1018,9 hPa 0,0 mm 9,8 km/h (2 Bft) N-NW 337 0 min 6,3 C 8,3 km/h (2 Bft)
06.05.2016 13:30 19,5 C 23,2 C 43 % 1018,9 hPa 0,0 mm 8,3 km/h (2 Bft) N-NO 22 0 min 6,6 C 12,5 km/h (3 Bft)
06.05.2016 13:35 19,9 C 23,7 C 42 % 1018,8 hPa 0,0 mm 7,7 km/h (2 Bft) O-NO 67 0 min 6,6 C 15,2 km/h (3 Bft)
06.05.2016 13:40 19,5 C 23,2 C 42 % 1018,8 hPa 0,0 mm 9,8 km/h (2 Bft) NO 45 5 min 6,2 C 8,9 km/h (2 Bft)
06.05.2016 13:45 19,7 C 23,8 C 42 % 1018,8 hPa 0,0 mm 9,2 km/h (2 Bft) O-NO 67 5 min 6,4 C 28,9 km/h (5 Bft)
06.05.2016 13:50 19,8 C 24,0 C 43 % 1018,8 hPa 0,0 mm 8,6 km/h (2 Bft) N-NW 337 5 min 6,9 C 18,2 km/h (3 Bft)
06.05.2016 13:55 19,1 C 23,4 C 41 % 1017,6 hPa 0,0 mm 9,5 km/h (2 Bft) O-NO 67 5 min 5,5 C 8,6 km/h (2 Bft)
06.05.2016 14:00 18,9 C 22,1 C 43 % 1017,6 hPa 0,0 mm 10,4 km/h (2 Bft) NO 45 5 min 6,0 C 10,7 km/h (2 Bft)
06.05.2016 14:05 18,7 C 20,9 C 43 % 1017,6 hPa 0,0 mm 10,1 km/h (2 Bft) N-NO 22 0 min 5,9 C 16,7 km/h (3 Bft)
06.05.2016 14:10 18,6 C 20,3 C 42 % 1017,6 hPa 0,0 mm 11,0 km/h (2 Bft) N-NW 337 0 min 5,4 C 6,3 km/h (2 Bft)
06.05.2016 14:15 19,2 C 21,4 C 42 % 1017,0 hPa 0,0 mm 10,4 km/h (2 Bft) O-SO 112 0 min 6,0 C 30,1 km/h (5 Bft)
06.05.2016 14:20 19,4 C 22,3 C 41 % 1017,0 hPa 0,0 mm 9,5 km/h (2 Bft) N-NW 337 0 min 5,8 C 22,4 km/h (4 Bft)
06.05.2016 14:25 19,8 C 23,3 C 40 % 1017,0 hPa 0,0 mm 9,8 km/h (2 Bft) O-NO 67 0 min 5,8 C 13,4 km/h (3 Bft)
06.05.2016 14:30 20,0 C 23,7 C 39 % 1017,0 hPa 0,0 mm 8,9 km/h (2 Bft) NO 45 0 min 5,6 C 20,9 km/h (4 Bft)
06.05.2016 14:35 20,2 C 24,0 C 39 % 1016,4 hPa 0,0 mm 9,2 km/h (2 Bft) N-NO 22 0 min 5,8 C 11,3 km/h (2 Bft)
06.05.2016 14:40 20,1 C 23,9 C 38 % 1016,4 hPa 0,0 mm 9,8 km/h (2 Bft) O-SO 112 5 min 5,3 C 8,9 km/h (2 Bft)
06.05.2016 14:45 19,9 C 23,9 C 37 % 1016,4 hPa 0,0 mm 9,5 km/h (2 Bft) O-NO 67 5 min 4,8 C 20,0 km/h (4 Bft)
06.05.2016 14:50 19,8 C 23,6 C 36 % 1016,4 hPa 0,0 mm 11,3 km/h (2 Bft) W 270 5 min 4,3 C 17,6 km/h (3 Bft)
06.05.2016 14:55 20,2 C 23,4 C 36 % 1016,0 hPa 0,0 mm 12,8 km/h (3 Bft) N-NO 22 0 min 4,7 C 7,7 km/h (2 Bft)
06.05.2016 15:00 20,1 C 23,3 C 35 % 1016,0 hPa 0,0 mm 13,1 km/h (3 Bft) SO 135 0 min 4,2 C 4,2 km/h (1 Bft)
06.05.2016 15:05 20,2 C 23,9 C 36 % 1016,0 hPa 0,0 mm 11,0 km/h (2 Bft) O 90 0 min 4,7 C 19,1 km/h (3 Bft)
06.05.2016 15:10 20,2 C 24,0 C 36 % 1016,0 hPa 0,0 mm 8,0 km/h (2 Bft) N-NO 22 5 min 4,7 C 3,3 km/h (1 Bft)
06.05.2016 15:15 20,2 C 24,1 C 36 % 1015,8 hPa 0,0 mm 11,3 km/h (2 Bft) NO 45 5 min 4,7 C 19,4 km/h (3 Bft)
06.05.2016 15:17 20,1 C 23,6 C 36 % 1015,8 hPa 0,0 mm 12,5 km/h (3 Bft) O-NO 67 2 min 4,6 C 16,1 km/h (3 Bft)
06.05.2016 15:21 20,1 C 23,6 C 36 % 1015,8 hPa 0,0 mm 12,5 km/h (3 Bft) O-NO 67 4 min 4,6 C 16,1 km/h (3 Bft)
06.05.2016 15:25 20,3 C 23,6 C 36 % 1015,8 hPa 0,0 mm 12,2 km/h (2 Bft) O-NO 67 0 min 4,7 C 14,3 km/h (3 Bft)
06.05.2016 15:30 20,2 C 23,7 C 36 % 1015,8 hPa 0,0 mm 11,3 km/h (2 Bft) NO 45 0 min 4,7 C 17,3 km/h (3 Bft)
06.05.2016 15:35 20,2 C 23,5 C 36 % 1015,5 hPa 0,0 mm 12,2 km/h (2 Bft) O 90 5 min 4,7 C 5,1 km/h (1 Bft)
06.05.2016 15:40 20,2 C 23,5 C 36 % 1015,5 hPa 0,0 mm 13,7 km/h (3 Bft) O-NO 67 0 min 4,7 C 22,1 km/h (4 Bft)
06.05.2016 15:45 20,1 C 23,3 C 36 % 1015,5 hPa 0,0 mm 14,6 km/h (3 Bft) NO 45 0 min 4,6 C 13,1 km/h (3 Bft)
06.05.2016 15:50 20,0 C 23,5 C 36 % 1015,5 hPa 0,0 mm 13,4 km/h (3 Bft) O-NO 67 0 min 4,5 C 8,0 km/h (2 Bft)
06.05.2016 15:55 20,2 C 23,9 C 36 % 1015,1 hPa 0,0 mm 10,1 km/h (2 Bft) O-NO 67 5 min 4,7 C 8,3 km/h (2 Bft)
06.05.2016 16:00 20,3 C 24,2 C 37 % 1015,1 hPa 0,0 mm 10,4 km/h (2 Bft) O-NO 67 5 min 5,1 C 17,3 km/h (3 Bft)
06.05.2016 16:05 20,1 C 24,0 C 36 % 1015,1 hPa 0,0 mm 12,2 km/h (2 Bft) O-NO 67 5 min 4,6 C 26,5 km/h (4 Bft)
06.05.2016 16:10 19,9 C 23,6 C 36 % 1015,1 hPa 0,0 mm 14,3 km/h (3 Bft) NO 45 5 min 4,4 C 14,3 km/h (3 Bft)
06.05.2016 16:15 19,9 C 23,6 C 36 % 1014,9 hPa 0,0 mm 14,6 km/h (3 Bft) O-NO 67 5 min 4,4 C 13,4 km/h (3 Bft)
06.05.2016 16:20 19,8 C 23,6 C 36 % 1014,9 hPa 0,0 mm 12,2 km/h (2 Bft) O-NO 67 5 min 4,3 C 14,0 km/h (3 Bft)
06.05.2016 16:25 19,8 C 23,7 C 36 % 1014,9 hPa 0,0 mm 13,4 km/h (3 Bft) O-NO 67 5 min 4,3 C 34,0 km/h (5 Bft)
06.05.2016 16:30 19,8 C 23,6 C 37 % 1014,9 hPa 0,0 mm 13,4 km/h (3 Bft) N-NO 22 5 min 4,7 C 17,3 km/h (3 Bft)
06.05.2016 16:35 19,7 C 23,6 C 36 % 1014,8 hPa 0,0 mm 13,7 km/h (3 Bft) O-NO 67 5 min 4,2 C 19,4 km/h (3 Bft)
06.05.2016 16:40 19,7 C 23,5 C 36 % 1014,8 hPa 0,0 mm 14,0 km/h (3 Bft) N-NO 22 5 min 4,2 C 24,4 km/h (4 Bft)
06.05.2016 16:45 19,6 C 23,4 C 36 % 1014,8 hPa 0,0 mm 13,1 km/h (3 Bft) O-NO 67 5 min 4,1 C 11,9 km/h (2 Bft)
06.05.2016 16:50 19,7 C 22,7 C 37 % 1014,8 hPa 0,0 mm 12,2 km/h (2 Bft) N-NO 22 5 min 4,6 C 10,4 km/h (2 Bft)
06.05.2016 16:55 19,5 C 21,7 C 37 % 1014,4 hPa 0,0 mm 11,0 km/h (2 Bft) NO 45 0 min 4,4 C 21,5 km/h (4 Bft)
06.05.2016 17:00 19,6 C 21,5 C 37 % 1014,4 hPa 0,0 mm 11,0 km/h (2 Bft) NO 45 0 min 4,5 C 14,3 km/h (3 Bft)
06.05.2016 17:05 19,4 C 21,1 C 37 % 1014,4 hPa 0,0 mm 11,3 km/h (2 Bft) O-NO 67 0 min 4,3 C 19,4 km/h (3 Bft)
06.05.2016 17:10 19,4 C 21,1 C 37 % 1014,4 hPa 0,0 mm 11,0 km/h (2 Bft) NO 45 0 min 4,3 C 14,0 km/h (3 Bft)
06.05.2016 17:15 19,4 C 20,9 C 37 % 1014,4 hPa 0,0 mm 13,4 km/h (3 Bft) NO 45 0 min 4,3 C 18,2 km/h (3 Bft)
06.05.2016 17:20 19,6 C 20,8 C 37 % 1014,4 hPa 0,0 mm 14,3 km/h (3 Bft) N-NO 22 0 min 4,5 C 21,5 km/h (4 Bft)
06.05.2016 17:25 19,5 C 20,6 C 37 % 1014,4 hPa 0,0 mm 14,9 km/h (3 Bft) O-NO 67 0 min 4,4 C 24,4 km/h (4 Bft)
06.05.2016 17:30 19,5 C 20,6 C 37 % 1014,4 hPa 0,0 mm 16,1 km/h (3 Bft) S 180 0 min 4,4 C 18,8 km/h (3 Bft)
06.05.2016 17:35 19,4 C 20,5 C 36 % 1014,3 hPa 0,0 mm 15,2 km/h (3 Bft) NO 45 0 min 3,9 C 29,8 km/h (5 Bft)
06.05.2016 17:40 19,4 C 20,4 C 37 % 1014,3 hPa 0,0 mm 15,5 km/h (3 Bft) NO 45 0 min 4,3 C 28,6 km/h (4 Bft)
06.05.2016 17:45 19,4 C 20,2 C 37 % 1014,3 hPa 0,0 mm 15,2 km/h (3 Bft) O-NO 67 0 min 4,3 C 22,1 km/h (4 Bft)
06.05.2016 17:50 19,4 C 20,3 C 37 % 1014,3 hPa 0,0 mm 15,5 km/h (3 Bft) NO 45 0 min 4,3 C 17,0 km/h (3 Bft)
06.05.2016 17:55 19,4 C 20,5 C 38 % 1014,1 hPa 0,0 mm 13,4 km/h (3 Bft) SO 135 0 min 4,7 C 13,1 km/h (3 Bft)
06.05.2016 18:00 19,3 C 20,5 C 37 % 1014,1 hPa 0,0 mm 14,9 km/h (3 Bft) N-NO 22 0 min 4,2 C 25,9 km/h (4 Bft)
06.05.2016 18:05 19,3 C 20,1 C 37 % 1014,1 hPa 0,0 mm 15,5 km/h (3 Bft) NO 45 0 min 4,2 C 10,7 km/h (2 Bft)
06.05.2016 18:10 19,3 C 20,2 C 37 % 1014,1 hPa 0,0 mm 16,1 km/h (3 Bft) NO 45 0 min 4,2 C 28,3 km/h (4 Bft)
06.05.2016 18:15 19,2 C 20,2 C 37 % 1014,1 hPa 0,0 mm 13,4 km/h (3 Bft) O-NO 67 0 min 4,2 C 25,3 km/h (4 Bft)
06.05.2016 18:20 19,1 C 20,5 C 37 % 1014,1 hPa 0,0 mm 12,8 km/h (3 Bft) NO 45 0 min 4,1 C 20,0 km/h (4 Bft)
06.05.2016 18:22 19,1 C 20,5 C 37 % 1014,1 hPa 0,0 mm 12,8 km/h (3 Bft) NO 45 0 min 4,1 C 20,0 km/h (4 Bft)
06.05.2016 18:25 19,1 C 21,0 C 37 % 1014,1 hPa 0,0 mm 13,1 km/h (3 Bft) NO 45 0 min 4,1 C 11,9 km/h (2 Bft)
06.05.2016 18:30 19,0 C 20,6 C 37 % 1014,1 hPa 0,0 mm 13,7 km/h (3 Bft) N-NO 22 0 min 4,0 C 17,6 km/h (3 Bft)
06.05.2016 18:35 19,0 C 20,4 C 37 % 1014,1 hPa 0,0 mm 13,7 km/h (3 Bft) O-NO 67 0 min 4,0 C 20,9 km/h (4 Bft)
06.05.2016 18:40 18,9 C 20,6 C 37 % 1014,1 hPa 0,0 mm 12,8 km/h (3 Bft) NO 45 0 min 3,9 C 20,3 km/h (4 Bft)
06.05.2016 18:45 18,8 C 20,9 C 38 % 1014,1 hPa 0,0 mm 10,1 km/h (2 Bft) O 90 0 min 4,2 C 8,6 km/h (2 Bft)
06.05.2016 18:50 18,8 C 21,0 C 38 % 1014,1 hPa 0,0 mm 8,9 km/h (2 Bft) NO 45 5 min 4,2 C 10,1 km/h (2 Bft)
06.05.2016 18:55 18,8 C 20,8 C 38 % 1013,9 hPa 0,0 mm 10,7 km/h (2 Bft) NO 45 0 min 4,2 C 11,3 km/h (2 Bft)
06.05.2016 19:00 18,8 C 20,5 C 38 % 1013,9 hPa 0,0 mm 11,9 km/h (2 Bft) O 90 0 min 4,2 C 7,7 km/h (2 Bft)
06.05.2016 19:05 18,7 C 20,2 C 38 % 1013,9 hPa 0,0 mm 11,0 km/h (2 Bft) O-NO 67 0 min 4,1 C 18,5 km/h (3 Bft)
06.05.2016 19:10 18,5 C 20,2 C 39 % 1013,9 hPa 0,0 mm 8,9 km/h (2 Bft) NO 45 0 min 4,3 C 7,7 km/h (2 Bft)
06.05.2016 19:15 18,3 C 20,5 C 39 % 1013,8 hPa 0,0 mm 7,7 km/h (2 Bft) O-NO 67 5 min 4,1 C 5,7 km/h (1 Bft)
06.05.2016 19:20 18,3 C 20,9 C 39 % 1013,8 hPa 0,0 mm 8,0 km/h (2 Bft) N 360 5 min 4,1 C 13,4 km/h (3 Bft)
06.05.2016 19:25 18,3 C 21,0 C 40 % 1013,8 hPa 0,0 mm 7,7 km/h (2 Bft) O-NO 67 5 min 4,5 C 14,0 km/h (3 Bft)
06.05.2016 19:30 18,1 C 21,0 C 40 % 1013,8 hPa 0,0 mm 8,0 km/h (2 Bft) O-NO 67 5 min 4,3 C 6,9 km/h (2 Bft)
06.05.2016 19:35 17,8 C 21,0 C 41 % 1013,7 hPa 0,0 mm 6,0 km/h (2 Bft) O-SO 112 5 min 4,4 C 13,4 km/h (3 Bft)
06.05.2016 19:40 17,6 C 20,9 C 42 % 1013,7 hPa 0,0 mm 4,8 km/h (1 Bft) W-SW 247 5 min 4,5 C 6,9 km/h (2 Bft)
06.05.2016 19:45 17,4 C 20,6 C 42 % 1013,7 hPa 0,0 mm 4,5 km/h (1 Bft) NO 45 5 min 4,4 C 3,6 km/h (1 Bft)
06.05.2016 19:50 17,3 C 20,4 C 43 % 1013,7 hPa 0,0 mm 3,3 km/h (1 Bft) O-NO 67 5 min 4,6 C 0,0 km/h (0 Bft)
06.05.2016 19:55 16,8 C 20,2 C 43 % 1013,6 hPa 0,0 mm 1,5 km/h (1 Bft) O-NO 67 5 min 4,2 C 3,3 km/h (1 Bft)
06.05.2016 20:00 16,7 C 19,8 C 44 % 1013,6 hPa 0,0 mm 2,4 km/h (1 Bft) O-NO 67 5 min 4,4 C 0,0 km/h (0 Bft)
06.05.2016 20:05 16,4 C 19,4 C 44 % 1013,6 hPa 0,0 mm 1,8 km/h (1 Bft) O-NO 67 5 min 4,1 C 3,6 km/h (1 Bft)
06.05.2016 20:10 16,1 C 19,0 C 45 % 1013,6 hPa 0,0 mm 0,9 km/h (0 Bft) SO 135 5 min 4,2 C 0,0 km/h (0 Bft)
06.05.2016 20:15 15,6 C 18,4 C 46 % 1013,8 hPa 0,0 mm 0,3 km/h (0 Bft) O-SO 112 5 min 4,0 C 0,0 km/h (0 Bft)
06.05.2016 20:20 15,5 C 18,0 C 48 % 1013,8 hPa 0,0 mm 0,0 km/h (0 Bft) NW 315 5 min 4,5 C 0,0 km/h (0 Bft)
06.05.2016 20:25 15,3 C 17,2 C 48 % 1013,8 hPa 0,0 mm 0,0 km/h (0 Bft) O-NO 67 0 min 4,4 C 0,0 km/h (0 Bft)
06.05.2016 20:30 14,9 C 16,4 C 49 % 1013,8 hPa 0,0 mm 0,0 km/h (0 Bft) O-SO 112 0 min 4,3 C 0,0 km/h (0 Bft)
06.05.2016 20:35 14,3 C 15,4 C 49 % 1013,7 hPa 0,0 mm 0,0 km/h (0 Bft) S-SO 157 0 min 3,7 C 0,0 km/h (0 Bft)
06.05.2016 20:40 14,4 C 14,8 C 50 % 1013,7 hPa 0,0 mm 0,0 km/h (0 Bft) S-SO 157 0 min 4,1 C 0,0 km/h (0 Bft)
06.05.2016 20:45 13,4 C 14,0 C 53 % 1013,7 hPa 0,0 mm 0,6 km/h (0 Bft) SO 135 0 min 4,0 C 4,2 km/h (1 Bft)
06.05.2016 20:50 12,7 C 13,4 C 55 % 1013,7 hPa 0,0 mm 0,6 km/h (0 Bft) S-SO 157 0 min 3,9 C 0,0 km/h (0 Bft)
06.05.2016 20:55 12,2 C 12,7 C 56 % 1013,8 hPa 0,0 mm 0,3 km/h (0 Bft) S-SO 157 0 min 3,7 C 0,0 km/h (0 Bft)
06.05.2016 21:00 12,2 C 12,8 C 56 % 1013,8 hPa 0,0 mm 0,0 km/h (0 Bft) S-SO 157 0 min 3,7 C 0,0 km/h (0 Bft)
06.05.2016 21:05 12,3 C 12,7 C 57 % 1013,8 hPa 0,0 mm 0,0 km/h (0 Bft) S-SO 157 0 min 4,0 C 0,0 km/h (0 Bft)
06.05.2016 21:10 12,5 C 12,7 C 56 % 1013,8 hPa 0,0 mm 0,3 km/h (0 Bft) S-SO 157 0 min 4,0 C 0,0 km/h (0 Bft)
06.05.2016 21:15 12,4 C 12,6 C 57 % 1013,9 hPa 0,0 mm 1,2 km/h (1 Bft) S-SO 157 0 min 4,1 C 4,5 km/h (1 Bft)
06.05.2016 21:20 11,6 C 11,9 C 57 % 1013,9 hPa 0,0 mm 1,2 km/h (1 Bft) S-SO 157 0 min 3,4 C 3,3 km/h (1 Bft)
06.05.2016 21:22 11,4 C 11,6 C 58 % 1013,9 hPa 0,0 mm 0,3 km/h (0 Bft) S-SO 157 0 min 3,4 C 0,0 km/h (0 Bft)
06.05.2016 21:23 11,4 C 11,6 C 58 % 1013,9 hPa 0,0 mm 0,3 km/h (0 Bft) S-SO 157 0 min 3,4 C 0,0 km/h (0 Bft)
06.05.2016 21:25 11,4 C 11,6 C 58 % 1013,9 hPa 0,0 mm 0,3 km/h (0 Bft) S-SO 157 0 min 3,4 C 0,0 km/h (0 Bft)
06.05.2016 21:30 11,3 C 11,2 C 58 % 1013,9 hPa 0,0 mm 0,3 km/h (0 Bft) SO 135 0 min 3,3 C 0,0 km/h (0 Bft)
06.05.2016 21:35 10,5 C 10,6 C 58 % 1013,9 hPa 0,0 mm 0,0 km/h (0 Bft) O-SO 112 0 min 2,6 C 0,0 km/h (0 Bft)
06.05.2016 21:40 10,3 C 10,3 C 59 % 1013,9 hPa 0,0 mm 0,0 km/h (0 Bft) O-NO 67 0 min 2,6 C 0,0 km/h (0 Bft)
06.05.2016 21:45 10,0 C 9,8 C 59 % 1013,9 hPa 0,0 mm 0,0 km/h (0 Bft) O-NO 67 0 min 2,4 C 0,0 km/h (0 Bft)
06.05.2016 21:50 9,7 C 9,5 C 59 % 1013,9 hPa 0,0 mm 0,0 km/h (0 Bft) O-NO 67 0 min 2,1 C 0,0 km/h (0 Bft)
06.05.2016 21:55 9,6 C 9,5 C 61 % 1014,0 hPa 0,0 mm 0,0 km/h (0 Bft) O-SO 112 0 min 2,5 C 0,0 km/h (0 Bft)
06.05.2016 22:00 9,6 C 9,9 C 62 % 1014,0 hPa 0,0 mm 0,0 km/h (0 Bft) O-SO 112 0 min 2,7 C 0,0 km/h (0 Bft)
06.05.2016 22:05 10,1 C 10,2 C 63 % 1014,0 hPa 0,0 mm 0,9 km/h (0 Bft) S-SO 157 0 min 3,4 C 7,2 km/h (2 Bft)
06.05.2016 22:10 10,3 C 10,5 C 63 % 1014,0 hPa 0,0 mm 1,8 km/h (1 Bft) S 180 0 min 3,6 C 5,1 km/h (1 Bft)
06.05.2016 22:15 10,2 C 10,4 C 63 % 1014,0 hPa 0,0 mm 3,0 km/h (1 Bft) S-SO 157 0 min 3,5 C 5,1 km/h (1 Bft)
06.05.2016 22:20 10,0 C 10,1 C 63 % 1014,0 hPa 0,0 mm 2,7 km/h (1 Bft) S 180 0 min 3,3 C 3,6 km/h (1 Bft)
06.05.2016 22:25 10,1 C 10,1 C 64 % 1014,0 hPa 0,0 mm 1,5 km/h (1 Bft) S-SO 157 0 min 3,6 C 5,7 km/h (1 Bft)
06.05.2016 22:30 10,1 C 10,1 C 64 % 1014,0 hPa 0,0 mm 0,6 km/h (0 Bft) SO 135 0 min 3,6 C 0,0 km/h (0 Bft)
06.05.2016 22:35 9,6 C 9,7 C 64 % 1013,9 hPa 0,0 mm 0,3 km/h (0 Bft) SO 135 0 min 3,1 C 0,0 km/h (0 Bft)
06.05.2016 22:40 9,6 C 9,6 C 64 % 1013,9 hPa 0,0 mm 0,0 km/h (0 Bft) O 90 0 min 3,1 C 0,0 km/h (0 Bft)
06.05.2016 22:45 9,0 C 8,8 C 64 % 1013,9 hPa 0,0 mm 0,0 km/h (0 Bft) SO 135 0 min 2,6 C 0,0 km/h (0 Bft)
06.05.2016 22:50 9,1 C 8,9 C 64 % 1013,9 hPa 0,0 mm 0,0 km/h (0 Bft) O-SO 112 0 min 2,7 C 0,0 km/h (0 Bft)
06.05.2016 22:55 8,4 C 8,3 C 65 % 1014,0 hPa 0,0 mm 0,0 km/h (0 Bft) NO 45 0 min 2,2 C 0,0 km/h (0 Bft)
06.05.2016 23:00 8,2 C 8,0 C 66 % 1014,0 hPa 0,0 mm 0,0 km/h (0 Bft) O-NO 67 0 min 2,2 C 0,0 km/h (0 Bft)
06.05.2016 23:05 8,1 C 7,8 C 67 % 1014,0 hPa 0,0 mm 0,0 km/h (0 Bft) NO 45 0 min 2,3 C 0,0 km/h (0 Bft)
06.05.2016 23:10 7,7 C 7,5 C 67 % 1014,0 hPa 0,0 mm 0,0 km/h (0 Bft) N-NW 337 0 min 2,0 C 0,0 km/h (0 Bft)
06.05.2016 23:15 7,9 C 7,5 C 70 % 1013,9 hPa 0,0 mm 0,0 km/h (0 Bft) O-NO 67 0 min 2,8 C 0,0 km/h (0 Bft)
06.05.2016 23:20 7,6 C 7,2 C 70 % 1013,9 hPa 0,0 mm 0,0 km/h (0 Bft) O-NO 67 0 min 2,5 C 0,0 km/h (0 Bft)
06.05.2016 23:25 7,5 C 7,1 C 70 % 1013,9 hPa 0,0 mm 0,0 km/h (0 Bft) O-NO 67 0 min 2,4 C 0,0 km/h (0 Bft)
06.05.2016 23:30 7,2 C 6,9 C 70 % 1013,9 hPa 0,0 mm 0,0 km/h (0 Bft) O-NO 67 0 min 2,1 C 0,0 km/h (0 Bft)
06.05.2016 23:35 7,0 C 6,7 C 70 % 1013,9 hPa 0,0 mm 0,0 km/h (0 Bft) O-NO 67 0 min 1,9 C 0,0 km/h (0 Bft)
06.05.2016 23:40 6,8 C 6,5 C 70 % 1013,9 hPa 0,0 mm 0,0 km/h (0 Bft) W-NW 292 0 min 1,7 C 0,0 km/h (0 Bft)
06.05.2016 23:45 7,3 C 6,8 C 73 % 1013,9 hPa 0,0 mm 0,0 km/h (0 Bft) O-NO 67 0 min 2,8 C 0,0 km/h (0 Bft)
06.05.2016 23:50 7,2 C 6,8 C 69 % 1013,9 hPa 0,0 mm 0,0 km/h (0 Bft) SO 135 0 min 1,9 C 0,0 km/h (0 Bft)
06.05.2016 23:55 7,2 C 6,7 C 70 % 1014,0 hPa 0,0 mm 0,0 km/h (0 Bft) SO 135 0 min 2,1 C 0,0 km/h (0 Bft)
_ Min-Zeit 05:20 05:20 15:00 20:10 - 23:55 - - - 06:30 23:55
Minimum _ 0,8 C 0,6 C 35 % 1013,6 hPa - 0,0 km/h (0 Bft) - - - -0,8 C 0,0 km/h (0 Bft)
_ Max-Zeit 16:00 09:40 05:35 13:30 23:55 18:10 - - 20:20 09:20 16:25
Maximum _ 20,3 C 26,5 C 91 % 1018,9 hPa 0,0 mm 16,1 km/h
NO (3 Bft)
- - 5 min 8,3 C 34,0 km/h
O-NO (5 Bft)
Durchschnitt _ 12,0 C 14,5 C 60 % 1016,3 hPa #0,0 mm 4,4 km/h (1 Bft) O-NO - #8:51 h 3,4 C 6,3 km/h (2 Bft)